[ hide orbit diagram ]
For accurate long-term ephemerides, please instead use our Horizons system.This orbit viewer was implemented using two-body methods, and hence should not be used for determining accurate long-term trajectories (over several years or decades) or planetary encounter circumstances.
Orbital Elements at Epoch 2459000.5 (2020-May-31.0) TDB
Reference: JPL 12 (heliocentric ecliptic J2000)
Element | Value | Uncertainty (1-sigma) | Units |
e | .01240678763328635 | 5.6568e-08 | |
a | 3.075273732027007 | 3.6569e-08 | au |
q | 3.037119463919523 | 1.9474e-07 | au |
i | 12.38325825540556 | 5.0462e-06 | deg |
node | 138.3772409446595 | 2.8623e-05 | deg |
peri | 146.4815073309148 | 0.00028701 | deg |
M | 326.7544856432602 | 0.00028205 | deg |
tp | 2459182.409194416293 (2020-Nov-28.90919442) | 0.0015417 | TDB |
period | 1969.808897740495 5.39 | 3.5135e-05 9.619e-08 | d yr |
n | .1827588454966086 | 3.2598e-09 | deg/d |
Q | 3.11342800013449 | 3.7022e-08 | au |
|
| | Orbit Determination Parameters
Additional Information
|
[ show covariance matrix ]
Physical Parameter Table
Parameter |
Symbol |
Value |
Units |
Sigma |
Reference |
Notes |
absolute magnitude |
H |
15.7 |
|
n/a |
MPO476001 |
|
|
249101 (2007 VF241) Discovered 2007-Nov-11 by Mt. Lemmon Survey at Mount Lemmon |
Reference: 20100824/Numbers.arc | Last Updated: 2010-08-27 |
|
[ show close-approach data ]
|